Flag for India Weather past 2 weeks in Kolkata, West Bengal, India

Now
63 °F

Fog.


Feels Like: 63 °F
Forecast: 62 / 81 °F
Wind: No wind

Location: Calcutta / Dum Dum

Current Time: Jan 28, 2015 at 2:50:42 AM

Latest Report: Jan 28, 2015 at 2:20 AM


Visibility: 1 mi

Pressure: 29.92 "Hg

Humidity: 88%

Dew point: 59 °F

Location of KolkataLocation

Historic Weather in Kolkata — Graph

°F

Kolkata temperature yesterday

Maximum temperature yesterday: 79 °F (at 1:20 PM)
Minimum temperature yesterday: 59 °F (at 6:20 AM)
Average temperature yesterday: 68 °F

Past Weeks' High & Low Weather Summary

 TemperatureHumidityPressure
High81 °F (Jan 23, 1:20 PM)100% (Jan 20, 7:20 AM)30.18 "Hg (Jan 20, 7:20 AM)
Low52 °F (Jan 20, 2:50 AM)28% (Jan 23, 1:20 PM)29.89 "Hg (Jan 13, 5:20 PM)
Average65 °F73%30.01 "Hg
* Reported Jan 13 1:50 AM — Jan 28 1:50 AM, Kolkata, Weather by CustomWeather, © 2014

Note: Actual official high and low records may vary slightly from our data, if they occured in-between our weather recording intervals... More about our weather records

Advertising

Kolkata weather history for previous 24 hours

 ConditionsComfort  
Time TempWeatherWind HumidityBarometerVisibility
1:50 AM
Jan 28
63 °FFog.No wind88%29.95 "Hg1 mi
1:20 AM63 °FFog.No wind88%29.95 "Hg1 mi
12:50 AM64 °FFog.No wind88%29.95 "Hg1 mi
12:20 AM64 °FFog.No wind88%29.98 "Hg1 mi
11:50 PM
Jan 27
64 °FFog.No wind88%29.98 "Hg1 mi
11:20 PM66 °FFog.No wind83%29.95 "Hg1 mi
10:50 PM66 °FFog.No wind83%29.98 "Hg1 mi
10:20 PM66 °FFog.No wind83%29.98 "Hg1 mi
9:50 PM66 °FFog.No wind83%29.98 "Hg1 mi
9:20 PM68 °FFog.No wind78%29.95 "Hg1 mi
8:50 PM68 °FFog.No wind78%29.95 "Hg1 mi
8:20 PM68 °FHaze.No wind73%29.95 "Hg1 mi
7:50 PM70 °FHaze.No wind69%29.95 "Hg1 mi
7:20 PM70 °FHaze.No wind69%29.95 "Hg1 mi
6:50 PM72 °FHaze.No wind65%29.95 "Hg1 mi
6:20 PM72 °FHaze.No wind61%29.95 "Hg1 mi
5:50 PM73 °FHaze.3 mph57%29.92 "Hg2 mi
5:20 PM75 °FHaze.3 mph50%29.92 "Hg2 mi
4:50 PM77 °FHaze.5 mph47%29.92 "Hg2 mi
4:20 PM77 °FHaze.7 mph47%29.92 "Hg2 mi
3:50 PM79 °FHaze.8 mph45%29.92 "Hg2 mi
3:20 PM79 °FHaze.6 mph45%29.92 "Hg2 mi
2:50 PM79 °FHaze.8 mph45%29.92 "Hg2 mi
2:20 PM79 °FHaze.8 mph42%29.92 "Hg2 mi
1:50 PM79 °FHaze.9 mph45%29.95 "Hg2 mi
1:20 PM79 °FHaze.9 mph45%29.95 "Hg2 mi
12:50 PM77 °FHaze.7 mph51%29.98 "Hg2 mi
12:20 PM77 °FHaze.8 mph51%29.98 "Hg2 mi
11:20 AM75 °FHaze.7 mph50%30.04 "Hg2 mi
10:50 AM73 °FHaze.7 mph53%30.04 "Hg2 mi
10:20 AM73 °FHaze.6 mph50%30.04 "Hg2 mi
9:50 AM72 °FHaze.6 mph57%30.07 "Hg1 mi
9:20 AM70 °FHaze.5 mph60%30.07 "Hg1 mi
8:20 AM64 °FMild.3 mph83%30.04 "Hg1 mi
7:50 AM63 °FMild.3 mph88%30.04 "Hg1 mi
7:20 AM61 °FCool.No wind88%30.01 "Hg1 mi
6:50 AM59 °FFog.No wind88%30.01 "Hg1 mi
6:20 AM59 °FFog.3 mph88%29.98 "Hg1 mi
5:50 AM61 °FFog.No wind88%29.98 "Hg1 mi
5:20 AM61 °FFog.3 mph88%29.98 "Hg1 mi
4:50 AM61 °FFog.No wind88%29.95 "Hg1 mi
4:20 AM61 °FFog.No wind88%29.95 "Hg1 mi
3:50 AM61 °FFog.3 mph88%29.98 "Hg1 mi
3:20 AM61 °FFog.3 mph88%29.98 "Hg1 mi
2:50 AM61 °FFog.3 mph88%29.98 "Hg1 mi
2:20 AM61 °FFog.No wind88%29.98 "Hg1 mi
Weather by CustomWeather, © 2014

See weather overviewHow to use our weather pages